Probability
0 0 0 0 0 0 0 0 0 0 0 0 0 0 0 0 0 0 0 0 0 0 0 0 0 0 0 0 0 0 0 0 0 0 0 0 0 0 0 0 0 0 0
0 0 0 0 0 0 0 0 0 0 0 0 0 0 0 0 0 0 0 0 0 0 0 0 0 0 0 0 0 0 0 0 0 0 0 0 0 0 0 0 0 0 0
0 0 0 0 0 0 0 0 0 0 0 0 0 0 0 0 0 0 0 0 0 0 0 0 0 0 0 0 0 0 0 0 0 0 0 0 0 0 0 0 0 0 0
0 0 0 0 0 0 0 0 0 0 0 0 0 0 0 0 0 0 0 0 0 0 0 0 0 0 0 0 0 0 0 0 0 0 0 0 0 0 0 0 0 0 0
0 0 0 0 0 0 0 0 0 0 0 0 0 0 0 0 0 0 0 0 0 0 0 0 0 0 0 0 0 0 0 0 0 0 0 0 0 0 0 0 0 0 0
0 0 0 0 0 0 0 0 0 0 0 0 0 0 0 0 0 0 0 0 0 0 0 0 0 0 0 0 0 0 0 0 0 0 0 0 0 0 0 0 0 0 0
0 0 0 0 0 0 0 0 0 0 0 0 0 0 0 0 0 0 0 0 0 0 0 0 0 0 0 0 0 0 0 0 0 0 0 0 0 0 0 0 0 0 0
0 0 0 0 0 0 0 0 0 0 0 0 0 0 0 0 0 0 0 0 0 0 0 0 0 0 0 0 0 0 0 0 0 0 0 0 0 0 0 0 0 0 0
0 0 0 0 0 0 0 0 0 0 0 0 0 0 0 0 0 0 0 0 0 0 0 0 0 0 0 0 0 0 0 0 0 0 0 0 0 0 0 0 0 0 0
0 0 0 0 0 0 0 0 0 0 0 0 0 0 0 0 0 0 0 0 0 0 0 0 0 0 0 0 0 0 0 0 0 0 0 0 0 0 0 0 0 0 0
0 0 0 0 0 0 0 0 0 0 0 0 0 0 0 0 0 0 0 0 0 0 0 0 0 0 0 0 0 0 0 0 0 0 0 0 0 0 0 0 0 0 0
0 0 0 0 0 0 0 0 0 0 0 0 0 0 0 0 0 0 0 0 0 0 0 0 0 0 0 0 0 0 0 0 0 0 0 0 0 0 0 0 0 0 0
0 0 0 0 0 0 0 0 0 0 0 0 0 0 0 0 0 0 0 0 0 0 0 0 0 0 0 0 0 0 0 0 0 0 0 0 0 0 0 0 0 0 0
0 0 0 0 0 0 0 0 0 0 0 0 0 0 0 0 0 0 0 0 0 0 0 0 0 0 0 0 0 0 0 0 0 0 0 0 0 0 0 0 0 0 0
0 0 0 0 0 0 0 0 0 0 0 0 0 0 0 0 0 0 0 0 0 0 0 0 0 0 0 0 0 0 0 0 0 0 0 0 0 0 0 0 0 0 0
0 0 0 0 0 0 0 0 0 0 0 0 0 0 0 0 0 0 0 0 0 0 0 0 0 0 0 0 0 0 0 0 0 0 0 0 0 0 0 0 0 0 0
0 0 0 0 0 0 0 0 0 0 0 0 0 0 0 0 0 0 0 0 0 0 0 0 0 0 0 0 0 0 0 0 0 0 0 0 0 0 0 0 0 0 0
0 0 0 0 0 0 0 0 0 0 0 0 0 0 0 0 0 0 0 0 0 0 0 0 0 0 0 0 0 0 0 0 0 0 0 0 0 0 0 0 0 0 0
0 0 0 0 0 0 0 0 0 0 0 0 0 0 0 0 0 0 0 0 0 0 0 0 0 0 0 0 0 0 0 0 0 0 0 0 0 0 0 0 0 0 0
0 0 0 0 0 0 0 0 0 0 0 0 0 0 0 0 0 0 0 0 0 0 0 0 0 0 0 0 0 0 0 0 0 0 0 0 0 0 0 0 0 0 0
0 0 0 0 0 0 0 0 0 0 0 0 0 0 0 0 0 0 0 0 0 0 0 0 0 0 0 0 0 0 0 0 0 0 0 0 0 0 0 0 0 0 0
0 0 0 0 0 0 0 0 0 0 0 0 0 0 0 0 0 0 0 0 0 0 0 0 0 0 0 0 0 0 0 0 0 0 0 0 0 0 0 0 0 0 0
0 0 0 0 0 0 0 0 0 0 0 0 0 0 0 0 0 0 0 0 0 0 0 0 0 0 0 0 0 0 0 0 0 0 0 0 0 0 0 0 0 0 0
0 0 0 0 0 0 0 0 0 0 0 0 0 0 0 0 0 0 0 0 0 0 0 0 0 0 0 0 0 0 0 0 0 0 0 0 0 0 0 0 0 0 0
0 0 0 0 0 0 0 0 0 0 0 0 0 0 0 0 0 0 0 0 0 0 0 0 0 0 0 0 0 0 0 0 0 0 0 0 0 0 0 0 0 0 0
0 0 0 0 0 0 0 0 0 0 0 0 0 0 0 0 0 0 0 0 0 0 0 0 0 0 0 0 0 0 0 0 0 0 0 0 0 0 0 0 0 0 0
Height
5841 5843 5845 5847 5848 5849 5850 5851 5852 5853 5853 5853 5854 5854 5853 5853 5852 5852 5851 5850 5849 5848 5847 5845 5843 5841 5838 5836 5833 5830 5827 5824 5821 5818 5815 5812 5809 5806 5803 5800 5797 5794 5791
5836 5838 5840 5841 5843 5844 5845 5846 5847 5848 5848 5848 5849 5849 5848 5848 5847 5847 5846 5845 5844 5842 5841 5839 5837 5835 5832 5830 5827 5824 5821 5818 5815 5812 5809 5807 5804 5800 5797 5794 5791 5788 5786
5831 5833 5834 5836 5837 5839 5840 5841 5842 5842 5843 5843 5843 5843 5843 5842 5841 5841 5840 5839 5838 5836 5834 5833 5831 5828 5826 5823 5820 5817 5814 5811 5809 5806 5803 5800 5797 5795 5791 5788 5785 5783 5780
5825 5827 5829 5830 5832 5833 5834 5835 5836 5836 5837 5837 5837 5837 5837 5836 5835 5834 5833 5832 5831 5830 5828 5826 5824 5821 5819 5816 5813 5810 5807 5805 5802 5799 5796 5794 5791 5788 5785 5782 5779 5776 5774
5819 5821 5823 5824 5825 5827 5828 5828 5829 5830 5830 5830 5831 5830 5830 5829 5829 5828 5827 5825 5824 5822 5820 5818 5816 5814 5811 5809 5806 5803 5800 5798 5795 5792 5789 5787 5784 5781 5778 5776 5773 5770 5768
5812 5814 5816 5818 5819 5820 5821 5822 5822 5823 5823 5823 5824 5823 5823 5822 5821 5820 5819 5818 5816 5815 5813 5811 5808 5806 5803 5801 5798 5795 5793 5790 5788 5785 5782 5779 5777 5774 5771 5768 5766 5763 5761
5805 5807 5809 5811 5812 5813 5814 5815 5815 5815 5816 5816 5816 5816 5816 5814 5813 5812 5811 5810 5808 5806 5805 5802 5800 5798 5795 5792 5790 5787 5785 5782 5780 5777 5774 5772 5769 5766 5763 5761 5758 5756 5754
5798 5800 5802 5803 5804 5805 5806 5807 5807 5807 5808 5808 5808 5808 5808 5808 5805 5804 5802 5801 5799 5797 5796 5793 5791 5789 5786 5783 5781 5778 5776 5773 5771 5769 5766 5764 5761 5758 5756 5753 5751 5748 5746
5790 5792 5793 5795 5796 5797 5798 5798 5799 5799 5799 5799 5798 5798 5799 5799 5798 5797 5794 5792 5790 5788 5786 5784 5781 5779 5777 5774 5772 5769 5767 5764 5762 5760 5758 5755 5753 5750 5748 5745 5743 5740 5738
5782 5784 5785 5786 5787 5788 5789 5789 5790 5790 5790 5790 5789 5789 5788 5788 5787 5787 5786 5783 5781 5779 5777 5775 5772 5770 5767 5765 5763 5760 5758 5755 5753 5751 5749 5746 5744 5741 5739 5737 5735 5733 5731
5774 5775 5776 5777 5778 5779 5780 5780 5780 5781 5781 5780 5780 5779 5778 5777 5776 5775 5775 5773 5771 5769 5767 5765 5763 5760 5758 5756 5753 5751 5748 5746 5744 5741 5739 5737 5735 5732 5730 5728 5726 5725 5723
5765 5766 5767 5768 5769 5770 5770 5771 5771 5771 5771 5770 5770 5769 5768 5767 5766 5764 5764 5763 5761 5759 5757 5754 5752 5750 5747 5745 5743 5740 5738 5736 5733 5731 5729 5727 5725 5723 5721 5719 5718 5716 5715
5756 5757 5758 5759 5760 5760 5760 5761 5761 5761 5761 5760 5760 5759 5758 5756 5755 5753 5752 5751 5750 5748 5746 5743 5741 5738 5736 5734 5732 5729 5727 5725 5723 5721 5719 5717 5715 5714 5712 5711 5709 5708 5707
5746 5747 5748 5749 5750 5750 5751 5751 5751 5751 5750 5750 5749 5748 5747 5745 5743 5742 5740 5739 5738 5737 5735 5732 5729 5726 5724 5722 5720 5718 5716 5714 5712 5710 5709 5707 5706 5704 5703 5702 5701 5700 5699
5737 5738 5738 5739 5740 5740 5740 5740 5740 5740 5740 5739 5738 5736 5735 5733 5731 5730 5728 5726 5725 5724 5723 5720 5717 5714 5712 5710 5708 5706 5704 5703 5701 5699 5698 5697 5696 5695 5694 5693 5692 5692 5692
5727 5728 5728 5729 5729 5730 5730 5729 5729 5729 5728 5727 5726 5725 5723 5721 5720 5717 5715 5713 5711 5710 5709 5708 5705 5702 5700 5698 5696 5694 5693 5691 5690 5689 5687 5687 5686 5685 5685 5685 5684 5684 5684
5717 5717 5718 5718 5718 5719 5719 5718 5718 5717 5717 5715 5714 5713 5711 5709 5707 5705 5703 5701 5699 5697 5696 5695 5692 5690 5688 5686 5684 5683 5681 5680 5680 5678 5678 5677 5677 5676 5676 5676 5676 5676 5676
5706 5707 5707 5707 5708 5708 5707 5707 5707 5706 5705 5704 5703 5701 5699 5698 5696 5693 5691 5689 5687 5685 5684 5682 5680 5678 5676 5675 5673 5672 5671 5670 5669 5669 5668 5668 5667 5667 5668 5668 5668 5668 5668
5695 5696 5696 5696 5696 5696 5696 5696 5695 5694 5693 5692 5691 5690 5688 5686 5684 5682 5680 5677 5675 5673 5672 5670 5669 5667 5665 5664 5663 5662 5661 5660 5660 5659 5659 5659 5659 5659 5659 5660 5660 5660 5661
5684 5684 5685 5685 5685 5685 5685 5684 5684 5683 5682 5681 5680 5678 5676 5675 5673 5671 5668 5666 5664 5662 5660 5659 5658 5656 5655 5653 5653 5652 5651 5651 5650 5650 5650 5650 5651 5651 5651 5651 5652 5652 5653
5672 5673 5673 5674 5674 5674 5673 5673 5673 5672 5671 5670 5668 5667 5665 5663 5661 5659 5657 5655 5653 5651 5650 5648 5647 5646 5645 5644 5643 5642 5642 5642 5641 5642 5642 5642 5642 5643 5643 5643 5644 5644 5645
5661 5662 5662 5662 5662 5662 5662 5662 5662 5661 5660 5659 5657 5656 5654 5652 5650 5648 5646 5644 5643 5641 5639 5638 5637 5636 5635 5635 5634 5633 5633 5633 5633 5634 5634 5634 5634 5634 5635 5635 5635 5636 5636
5649 5650 5651 5651 5651 5651 5651 5651 5650 5649 5649 5648 5646 5645 5643 5641 5640 5638 5636 5634 5632 5631 5629 5628 5627 5627 5626 5625 5625 5625 5625 5625 5625 5625 5625 5625 5626 5626 5626 5626 5627 5627 5628
5638 5639 5639 5640 5640 5640 5640 5640 5639 5638 5637 5636 5635 5634 5632 5631 5629 5627 5625 5624 5622 5621 5620 5619 5618 5617 5617 5617 5616 5616 5616 5616 5616 5616 5617 5617 5617 5617 5617 5618 5618 5618 5618
5626 5627 5628 5628 5629 5629 5629 5628 5628 5627 5626 5625 5624 5623 5622 5620 5619 5617 5616 5614 5613 5612 5611 5610 5609 5609 5608 5608 5608 5608 5608 5608 5608 5608 5608 5608 5608 5608 5608 5608 5609 5609 5609
5613 5614 5615 5616 5617 5617 5617 5617 5616 5616 5615 5615 5614 5612 5611 5610 5609 5607 5606 5605 5604 5603 5602 5601 5601 5601 5600 5600 5600 5600 5600 5600 5600 5600 5600 5600 5600 5600 5600 5599 5599 5599 5599
Wind_Speed
24 23 24 24 23 23 22 21 21 20 20 20 20 20 20 21 21 22 22 23 24 25 25 27 28 30 31 32 33 34 34 34 34 33 33 32 32 32 31 32 32 31 30
24 24 25 25 25 25 24 24 23 23 23 23 23 23 23 23 24 24 25 26 27 28 29 30 31 32 33 34 35 35 35 35 35 34 34 33 33 32 32 33 33 32 31
25 25 26 26 26 26 26 26 26 26 26 26 26 26 26 26 27 28 28 29 30 31 32 33 34 35 36 36 37 37 37 36 36 35 35 34 33 33 33 33 33 32 31
27 27 27 27 27 27 28 28 28 28 28 28 29 29 29 30 31 31 32 33 33 34 35 36 37 37 38 38 39 38 38 37 37 36 36 35 34 34 34 34 34 33 32
27 27 27 27 27 28 29 30 30 31 31 31 31 32 32 33 34 35 36 36 37 37 38 39 39 40 40 40 40 39 39 38 38 37 36 36 35 35 34 34 34 33 32
29 28 28 29 29 30 30 31 32 33 33 34 34 34 35 35 37 38 39 39 40 40 41 42 42 42 42 41 41 40 39 39 38 37 37 36 36 36 36 35 34 34 32
30 29 30 30 31 31 32 33 34 34 35 36 36 37 37 38 39 40 40 41 42 43 43 44 44 43 42 42 41 41 40 39 39 38 37 37 37 37 36 36 35 34 33
32 32 32 32 32 33 34 35 36 37 37 38 38 39 38 38 40 41 42 43 44 45 45 45 45 43 42 42 42 41 41 40 39 39 38 38 37 37 36 36 35 34 33
34 35 35 35 35 36 36 37 37 38 38 39 39 40 40 40 40 41 43 44 45 46 46 46 44 44 43 43 42 42 41 41 40 40 39 38 38 37 37 36 35 34 33
36 36 37 38 38 39 39 39 40 40 41 41 42 43 43 44 44 43 43 45 46 45 45 45 44 43 43 43 43 42 42 42 41 41 40 39 38 37 37 36 35 33 32
37 38 38 38 39 40 41 41 42 43 43 43 43 44 44 45 46 46 45 45 45 45 45 45 45 44 44 44 44 43 43 43 42 41 40 39 38 37 37 36 34 31 30
38 39 39 39 40 41 41 42 43 44 45 45 46 46 46 47 47 47 47 46 46 46 46 46 46 46 45 45 45 44 44 43 42 41 41 40 38 37 36 35 32 30 29
39 39 40 41 42 43 43 43 44 45 45 45 46 47 47 48 48 48 48 48 48 47 47 47 47 47 47 47 46 45 44 43 43 42 41 39 38 37 35 33 31 29 28
40 41 41 42 42 43 44 44 45 45 46 46 47 48 49 50 50 51 51 51 50 50 49 49 49 49 48 48 47 46 45 44 43 42 40 39 37 35 33 31 29 28 27
42 42 43 43 44 44 46 47 47 48 49 50 50 51 52 52 52 52 52 52 52 51 50 50 50 50 49 48 47 46 44 43 42 40 39 38 36 33 31 30 28 27 26
44 45 45 46 46 47 48 48 49 50 50 51 51 51 51 52 52 52 51 51 51 50 49 49 48 48 48 47 46 45 43 42 40 39 37 35 33 31 30 29 27 27 26
45 46 47 47 48 48 49 49 49 49 50 50 50 50 50 50 50 50 50 49 49 49 48 47 47 46 45 45 44 42 41 39 38 36 35 33 31 30 29 27 26 26 25
46 47 48 48 49 49 49 49 49 49 49 49 49 49 49 49 48 48 48 48 48 48 47 46 45 44 43 42 41 40 38 37 36 35 33 31 30 29 28 27 26 25 24
47 47 47 47 47 48 47 47 48 48 48 48 47 47 46 46 46 46 46 46 47 46 45 44 43 42 40 39 38 37 36 35 34 32 31 30 29 28 27 26 26 25 24
47 47 46 46 46 46 46 46 46 46 46 46 45 45 45 45 45 45 45 45 44 44 43 42 41 40 38 38 36 35 34 34 32 30 30 29 28 28 27 27 26 25 25
47 46 45 45 45 46 45 45 45 45 44 44 44 44 44 44 44 44 43 43 43 42 41 40 39 38 36 35 34 34 33 32 31 29 29 28 28 27 27 27 26 26 25
46 45 45 45 45 44 44 44 44 43 43 43 43 43 43 43 43 43 42 42 41 40 39 38 37 36 34 34 33 32 31 30 29 29 28 28 28 28 27 27 27 26 26
46 45 45 45 44 44 44 44 44 43 43 43 43 43 43 43 43 42 41 40 39 38 38 37 35 34 33 32 31 31 30 29 29 29 28 28 28 27 27 27 27 27 27
46 46 45 45 45 45 44 44 43 43 43 42 42 42 42 42 41 40 39 37 37 36 35 33 32 32 31 31 31 30 29 29 29 29 29 28 28 28 28 28 28 28 29
46 46 45 45 45 44 44 43 42 42 41 41 41 41 41 40 39 37 36 35 34 33 32 31 31 30 30 30 30 29 28 28 28 28 28 28 28 28 28 29 29 30 30
45 45 44 44 43 43 42 41 41 41 41 40 40 39 38 38 37 35 34 33 32 31 30 30 29 29 28 28 27 27 27 27 28 28 28 29 29 29 29 30 31 31 32
Wind_Direction
239 242 245 246 248 250 252 255 259 262 266 269 272 275 277 280 283 286 289 292 295 299 301 304 306 307 309 310 310 310 309 309 309 309 310 312 312 313 314 314 315 314 312
239 243 245 248 250 251 253 256 259 263 266 269 272 274 277 280 283 286 289 291 294 297 300 302 304 305 307 308 308 308 307 307 307 307 308 309 310 311 311 313 313 313 311
239 243 246 249 251 253 255 258 260 263 266 269 272 274 277 280 283 285 288 290 292 295 298 300 302 304 305 305 306 306 305 305 305 305 306 307 308 309 309 311 312 311 309
240 243 246 249 252 255 257 259 261 263 266 269 272 274 277 280 282 285 287 289 291 293 296 298 300 301 303 303 303 303 303 302 302 303 304 304 306 308 308 309 310 309 307
242 245 248 251 254 256 258 260 262 264 267 269 272 274 277 280 282 284 286 288 290 292 294 296 298 299 301 301 301 301 300 300 300 300 301 303 304 306 307 307 307 307 305
244 247 251 254 257 259 261 263 264 266 268 270 272 274 277 279 282 285 286 287 289 291 293 294 296 297 298 298 298 298 297 297 298 298 300 301 302 304 304 305 305 304 303
246 249 253 256 260 262 264 265 267 268 269 271 272 274 277 280 282 284 286 287 288 290 292 293 295 296 296 296 296 297 296 296 297 298 298 299 300 301 302 303 303 302 300
248 252 255 259 261 263 265 267 268 270 271 272 274 275 275 278 282 284 286 287 289 290 292 293 294 294 295 295 295 295 295 295 295 296 296 297 298 300 301 302 301 300 298
251 252 255 259 261 263 266 268 269 270 272 273 274 276 277 278 280 283 285 286 288 290 291 292 293 294 294 294 294 294 294 294 294 294 295 295 297 298 299 299 298 297 295
253 254 257 261 262 264 266 268 269 271 272 274 276 278 280 281 282 284 285 287 288 289 290 291 291 292 292 293 293 293 292 292 292 293 293 294 295 296 296 297 296 294 292
256 257 259 261 263 265 267 268 269 271 273 275 277 280 282 283 284 285 286 288 288 288 289 290 290 291 291 291 291 291 290 290 291 291 291 292 292 293 294 294 293 292 290
259 261 262 262 263 266 268 271 271 273 274 276 278 280 282 284 285 286 286 287 288 289 289 290 290 290 289 289 289 289 289 289 289 290 290 290 290 291 292 291 290 288 287
262 263 264 265 266 268 270 272 274 275 276 278 280 282 283 285 285 286 287 287 288 288 289 289 290 289 289 289 288 288 288 287 288 288 288 288 288 289 289 288 287 285 284
263 264 266 267 268 270 271 273 275 276 277 279 281 282 283 285 286 287 287 287 287 288 288 288 288 288 287 287 287 286 286 286 286 287 287 287 287 287 286 284 284 282 281
263 265 268 270 271 273 274 276 277 277 279 280 281 282 284 285 286 287 288 288 288 288 288 288 287 287 286 285 285 285 285 285 285 285 286 285 285 283 282 281 280 279 278
265 266 268 271 272 274 276 277 278 279 280 281 282 284 286 287 287 288 288 288 288 288 287 287 287 286 286 285 285 285 285 285 285 285 284 284 282 280 279 278 277 277 277
265 266 269 271 273 275 276 277 278 280 282 283 284 285 286 287 287 287 288 287 287 287 287 286 286 285 285 285 285 284 284 284 284 284 283 281 279 277 277 276 276 276 275
265 267 270 272 273 275 276 278 279 281 282 283 284 285 286 286 286 287 287 288 288 288 287 287 287 286 285 284 284 284 284 283 283 282 280 278 276 275 275 273 274 274 274
267 268 270 271 273 274 275 277 279 281 282 283 284 285 286 286 287 287 288 288 288 288 287 286 286 285 284 284 284 283 282 282 281 279 277 275 274 274 272 272 273 272 272
267 268 270 271 273 274 276 278 279 281 282 283 284 284 285 286 288 288 289 289 288 287 286 286 285 284 284 283 282 281 281 281 280 276 274 273 273 273 272 272 272 271 271
267 268 270 271 273 275 277 278 280 281 282 283 283 285 286 287 288 288 289 289 288 287 286 285 285 285 283 283 282 281 280 279 277 274 273 273 273 273 272 272 272 271 271
266 268 269 271 273 275 277 278 279 281 282 283 284 284 286 287 287 288 288 288 287 286 285 285 284 283 283 282 281 280 279 277 274 273 273 272 272 272 272 272 271 271 272
266 267 269 271 272 274 276 278 279 280 281 282 283 285 286 287 287 287 288 287 286 284 283 283 283 282 281 280 279 278 277 275 273 272 272 272 273 272 272 272 272 272 272
265 267 268 270 272 274 275 277 278 279 281 282 283 284 285 286 287 287 287 287 286 285 284 282 281 281 280 280 278 277 275 274 273 273 273 273 273 273 272 272 272 273 274
264 266 267 269 271 273 275 276 278 279 281 282 283 284 284 285 285 285 285 285 285 284 282 281 281 280 279 278 277 276 275 274 274 274 274 274 274 274 274 273 274 275 276
264 265 267 268 270 272 274 276 277 278 279 281 281 282 283 283 283 283 284 284 283 282 281 281 280 279 278 277 276 276 276 275 276 276 277 276 276 276 276 276 277 277 277